EW0890 Weather Reports


time (UTC)temp
C
wind
direction
speed
KPH
gust
KPH
rain 1hr
cm
rain 24hr
cm
rain mn
cm
humidity
%
barometer
mb
20260507182505 16 251 25.7 38.6 0.00 0.00 0.00 40 1012.4
20260507182009 16 251 27.4 38.6 0.00 0.00 0.00 39 1012.4
20260507181520 16 269 24.1 32.2 0.00 0.00 0.00 41 1012.5
20260507181013 16 269 24.1 45.1 0.00 0.00 0.00 38 1012.7
20260507180507 16 274 25.7 45.1 0.00 0.00 0.00 38 1012.7
20260507180036 17 249 27.4 35.4 0.00 0.00 0.00 37 1012.8
20260507175507 16 223 25.7 40.2 0.00 0.00 0.00 37 1012.9
20260507175004 16 256 27.4 40.2 0.00 0.00 0.00 38 1013.0
20260507174511 16 218 27.4 40.2 0.00 0.00 0.00 36 1013.1
20260507174004 16 255 30.6 40.2 0.00 0.00 0.00 37 1013.3
20260507173505 16 258 20.9 40.2 0.00 0.00 0.00 38 1013.3
20260507173016 15 251 25.7 40.2 0.00 0.00 0.00 41 1013.4
20260507172506 15 260 29.0 41.8 0.00 0.00 0.00 41 1013.4
20260507172008 16 229 30.6 41.8 0.00 0.00 0.00 38 1013.5
20260507171520 15 259 24.1 40.2 0.00 0.00 0.00 37 1013.7
20260507171007 15 229 25.7 38.6 0.00 0.00 0.00 37 1013.9
20260507170507 15 240 29.0 37.0 0.00 0.00 0.00 38 1013.8
20260507170024 15 229 25.7 33.8 0.00 0.00 0.00 39 1013.8
20260507165506 15 261 24.1 37.0 0.00 0.00 0.00 37 1013.9
20260507165008 15 232 30.6 37.0 0.00 0.00 0.00 37 1013.9
20260507164524 16 225 22.5 37.0 0.00 0.00 0.00 36 1014.0
20260507164004 15 238 22.5 38.6 0.00 0.00 0.00 38 1014.1
20260507163505 15 248 27.4 38.6 0.00 0.00 0.00 37 1014.2
20260507163012 15 238 22.5 37.0 0.00 0.00 0.00 40 1014.3
20260507162506 15 259 24.1 37.0 0.00 0.00 0.00 37 1014.4
20260507162005 15 255 25.7 37.0 0.00 0.00 0.00 37 1014.5
20260507161533 15 250 25.7 37.0 0.00 0.00 0.00 36 1014.4
20260507161008 15 245 25.7 35.4 0.00 0.00 0.00 39 1014.4
20260507160509 15 250 19.3 35.4 0.00 0.00 0.00 40 1014.4
20260507160033 15 225 24.1 33.8 0.00 0.00 0.00 41 1014.5
20260507155507 14 240 22.5 37.0 0.00 0.00 0.00 41 1014.7
20260507155010 14 257 22.5 37.0 0.00 0.00 0.00 42 1014.7
20260507154532 14 252 25.7 37.0 0.00 0.00 0.00 41 1014.9
20260507154010 14 252 25.7 35.4 0.00 0.00 0.00 40 1014.9
20260507153508 14 252 20.9 35.4 0.00 0.00 0.00 43 1014.9
20260507153026 13 245 25.7 45.1 0.00 0.00 0.00 44 1015.0
20260507152506 13 259 25.7 45.1 0.00 0.00 0.00 42 1015.2
20260507152004 13 258 19.3 32.2 0.00 0.00 0.00 42 1015.2
20260507151532 13 264 22.5 33.8 0.00 0.00 0.00 44 1015.1
20260507151007 13 256 24.1 35.4 0.00 0.00 0.00 45 1015.1
20260507150504 13 264 20.9 35.4 0.00 0.00 0.00 45 1015.1
20260507150022 13 252 22.5 32.2 0.00 0.00 0.00 44 1015.1
20260507145507 13 241 24.1 32.2 0.00 0.00 0.00 42 1015.2
20260507145007 13 240 20.9 29.0 0.00 0.00 0.00 45 1015.2
20260507144521 12 269 20.9 29.0 0.00 0.00 0.00 45 1015.3
20260507144008 12 241 20.9 29.0 0.00 0.00 0.00 47 1015.3
20260507143507 12 233 20.9 25.7 0.00 0.00 0.00 48 1015.4
20260507143006 12 266 22.5 27.4 0.00 0.00 0.00 49 1015.4
20260507142504 12 243 19.3 27.4 0.00 0.00 0.00 50 1015.5
20260507142005 12 243 19.3 25.7 0.00 0.00 0.00 51 1015.5
20260507141512 11 235 20.9 27.4 0.00 0.00 0.00 52 1015.6
20260507141007 11 252 20.9 27.4 0.00 0.00 0.00 50 1015.7
20260507140505 11 231 19.3 25.7 0.00 0.00 0.00 50 1015.6
20260507140019 11 228 17.7 25.7 0.00 0.00 0.00 50 1015.6
20260507135508 11 222 17.7 24.1 0.00 0.00 0.00 55 1015.6
20260507135009 11 227 14.5 22.5 0.00 0.00 0.00 55 1015.7
20260507134529 11 219 16.1 22.5 0.00 0.00 0.00 56 1015.8
20260507134007 11 235 14.5 20.9 0.00 0.00 0.00 53 1015.9
20260507133510 10 251 14.5 19.3 0.00 0.00 0.00 54 1015.8
20260507133022 10 225 14.5 17.7 0.00 0.00 0.00 56 1015.8
20260507132503 10 236 11.3 16.1 0.00 0.00 0.00 55 1015.8
20260507132003 10 217 11.3 16.1 0.00 0.00 0.00 59 1015.9
20260507131517 10 232 9.7 14.5 0.00 0.00 0.00 59 1015.9
20260507131004 9 247 9.7 14.5 0.00 0.00 0.00 59 1015.9
20260507130508 9 230 11.3 12.9 0.00 0.00 0.00 60 1016.0
20260507130013 9 238 9.7 12.9 0.00 0.00 0.00 62 1016.0
20260507125505 8 224 9.7 12.9 0.00 0.00 0.00 64 1016.0
20260507125012 8 240 8.0 9.7 0.00 0.00 0.00 68 1016.0
20260507124515 8 258 8.0 9.7 0.00 0.00 0.00 68 1016.0
20260507124005 8 236 8.0 9.7 0.00 0.00 0.00 69 1016.0
20260507123506 7 241 8.0 9.7 0.00 0.00 0.00 73 1016.0
20260507123021 7 229 8.0 9.7 0.00 0.00 0.00 72 1015.8
20260507122511 7 236 6.4 9.7 0.00 0.00 0.00 74 1015.8
20260507122012 6 227 6.4 9.7 0.00 0.00 0.00 74 1015.6
20260507121526 6 225 8.0 9.7 0.00 0.00 0.00 74 1015.6
20260507121003 6 202 6.4 8.0 0.00 0.00 0.00 77 1015.5
20260507120507 5 219 4.8 8.0 0.00 0.00 0.00 80 1015.5
20260507120011 5 213 4.8 6.4 0.00 0.00 0.00 82 1015.4
20260507115504 4 206 3.2 4.8 0.00 0.00 0.00 85 1015.5
20260507115007 3 205 3.2 4.8 0.00 0.00 0.00 87 1015.6
20260507114524 3 204 1.6 4.8 0.00 0.00 0.00 88 1015.5
20260507114006 3 201 3.2 4.8 0.00 0.00 0.00 88 1015.5
20260507113506 3 172 1.6 3.2 0.00 0.00 0.00 88 1015.5
20260507113020 2 169 1.6 3.2 0.00 0.00 0.00 88 1015.3
20260507112507 2 168 0.0 1.6 0.00 0.00 0.00 88 1015.3
20260507112007 2 207 0.0 0.0 0.00 0.00 0.00 86 1015.3
20260507111524 2 207 0.0 0.0 0.00 0.00 0.00 85 1015.3
20260507111008 2 207 0.0 0.0 0.00 0.00 0.00 84 1015.3
20260507110508 2 207 0.0 0.0 0.00 0.00 0.00 84 1015.3
20260507110035 2 207 0.0 0.0 0.00 0.00 0.00 84 1015.3
20260507105507 2 207 0.0 0.0 0.00 0.00 0.00 83 1015.2
20260507105003 3 223 0.0 0.0 0.00 0.00 0.00 82 1015.2
20260507104515 3 224 0.0 0.0 0.00 0.00 0.00 82 1015.2
20260507104006 3 225 0.0 0.0 0.00 0.00 0.00 81 1015.2
20260507103504 3 224 0.0 0.0 0.00 0.00 0.00 82 1015.2
20260507103026 3 193 0.0 0.0 0.00 0.00 0.00 84 1015.2
20260507102506 3 236 0.0 0.0 0.00 0.00 0.00 84 1015.3
20260507102007 3 232 0.0 0.0 0.00 0.00 0.00 84 1015.4
20260507101522 3 232 0.0 0.0 0.00 0.00 0.00 85 1015.3
20260507101009 3 238 0.0 0.0 0.00 0.00 0.00 85 1015.4
20260507100507 3 236 0.0 0.0 0.00 0.00 0.00 84 1015.4
20260507100029 3 236 0.0 0.0 0.00 0.00 0.00 84 1015.3
20260507095507 3 235 0.0 0.0 0.00 0.00 0.00 84 1015.4
20260507095008 3 236 0.0 0.0 0.00 0.00 0.00 83 1015.4
20260507094528 4 246 0.0 0.0 0.00 0.00 0.00 82 1015.4
20260507094010 4 246 0.0 0.0 0.00 0.00 0.00 82 1015.4
20260507093503 4 246 0.0 0.0 0.00 0.00 0.00 81 1015.3
20260507093017 4 246 0.0 0.0 0.00 0.00 0.00 81 1015.3
20260507092503 4 246 0.0 0.0 0.00 0.00 0.00 81 1015.4
20260507092006 4 245 0.0 0.0 0.00 0.00 0.00 82 1015.4
20260507091519 4 261 0.0 0.0 0.00 0.00 0.00 82 1015.5
20260507091009 4 261 0.0 0.0 0.00 0.00 0.00 82 1015.5
20260507090507 4 261 0.0 0.0 0.00 0.00 0.00 83 1015.5
20260507090035 4 261 0.0 0.0 0.00 0.00 0.00 83 1015.6
20260507085508 4 261 0.0 0.0 0.00 0.00 0.00 83 1015.6
20260507085008 4 261 0.0 0.0 0.00 0.00 0.00 83 1015.7
20260507084537 4 260 0.0 0.0 0.00 0.00 0.00 83 1015.7
20260507084008 4 261 0.0 0.0 0.00 0.00 0.00 83 1015.7
20260507083508 4 261 0.0 0.0 0.00 0.00 0.00 84 1015.7
20260507083026 4 261 0.0 0.0 0.00 0.00 0.00 84 1015.7
20260507082508 4 261 0.0 0.0 0.00 0.00 0.00 84 1015.7
20260507082003 4 260 0.0 0.0 0.00 0.00 0.00 84 1015.7
20260507081515 4 261 0.0 0.0 0.00 0.00 0.00 83 1015.6
20260507081006 4 261 0.0 0.0 0.00 0.00 0.00 83 1015.6
20260507080506 4 261 0.0 0.0 0.00 0.00 0.00 83 1015.6
20260507080019 4 265 0.0 0.0 0.00 0.00 0.00 83 1015.7
20260507075508 3 248 0.0 0.0 0.00 0.00 0.00 84 1015.7
20260507075010 3 248 0.0 0.0 0.00 0.00 0.00 84 1015.7
20260507074537 3 248 0.0 0.0 0.00 0.00 0.00 84 1015.7
20260507074008 3 248 0.0 0.0 0.00 0.00 0.00 84 1015.8
20260507073507 3 248 0.0 1.6 0.00 0.00 0.00 83 1015.7
20260507073025 3 248 0.0 1.6 0.00 0.00 0.00 82 1015.8
20260507072510 3 248 0.0 3.2 0.00 0.00 0.00 82 1015.8
20260507072012 3 247 1.6 3.2 0.00 0.00 0.00 81 1015.9
20260507071527 3 264 3.2 3.2 0.00 0.00 0.00 80 1015.9
20260507071008 3 267 1.6 3.2 0.00 0.00 0.00 80 1015.9
20260507070510 3 271 1.6 3.2 0.00 0.00 0.00 79 1015.9
20260507070016 3 273 1.6 3.2 0.00 0.00 0.00 78 1015.9
20260507065508 3 281 3.2 3.2 0.00 0.00 0.00 79 1015.9
20260507065007 3 268 1.6 3.2 0.00 0.00 0.00 79 1015.9
20260507064521 3 280 1.6 3.2 0.00 0.00 0.00 79 1015.9
20260507064007 3 280 1.6 3.2 0.00 0.00 0.00 80 1016.0
20260507063510 3 249 0.0 3.2 0.00 0.00 0.00 80 1016.0
20260507063025 3 266 0.0 1.6 0.00 0.00 0.00 80 1015.9
20260507062508 3 266 0.0 1.6 0.00 0.00 0.00 80 1015.9
20260507061527 3 275 0.0 1.6 0.00 0.00 0.00 80 1016.0
20260507061009 3 283 0.0 1.6 0.00 0.00 0.00 80 1016.0
20260507060508 3 283 0.0 0.0 0.00 0.00 0.00 81 1016.0
20260507060027 3 272 0.0 0.0 0.00 0.00 0.00 82 1016.0
20260507055511 3 272 0.0 1.6 0.00 0.00 0.00 81 1016.1
20260507055009 3 272 0.0 1.6 0.00 0.00 0.00 79 1016.1
20260507054515 3 272 0.0 3.2 0.00 0.00 0.00 78 1016.1
20260507053506 3 272 1.6 3.2 0.00 0.00 0.00 79 1016.1
20260507053021 3 272 0.0 0.0 0.00 0.00 0.00 81 1016.1
20260507052508 3 273 0.0 0.0 0.00 0.00 0.00 82 1016.1
20260507051534 3 267 0.0 0.0 0.00 0.00 0.00 83 1016.2
20260507050028 3 266 0.0 0.0 0.00 0.00 0.00 82 1016.2
20260507045510 3 266 0.0 0.0 0.00 0.00 0.00 82 1016.1
20260507045010 4 266 0.0 0.0 0.00 0.00 0.00 81 1016.1
20260507044527 4 266 0.0 0.0 0.00 0.00 0.00 81 1016.1
20260507044009 4 270 0.0 0.0 0.00 0.00 0.00 80 1016.0
20260507043510 3 287 0.0 0.0 0.00 0.00 0.00 80 1016.1
20260507043025 3 287 0.0 0.0 0.00 0.00 0.00 81 1016.1
20260507042506 3 287 0.0 0.0 0.00 0.00 0.00 81 1016.2
20260507041523 3 287 0.0 1.6 0.00 0.00 0.00 80 1016.2
20260507041003 3 287 0.0 1.6 0.00 0.00 0.00 80 1016.2
20260507040503 3 287 0.0 1.6 0.00 0.00 0.00 81 1016.2
20260507040006 3 287 0.0 0.0 0.00 0.00 0.00 81 1016.2
20260507035503 3 287 0.0 0.0 0.00 0.00 0.00 81 1016.2
20260507035003 3 287 0.0 0.0 0.00 0.00 0.00 81 1016.2
20260507034512 4 286 0.0 0.0 0.00 0.00 0.00 81 1016.2
20260507033019 5 287 0.0 0.0 0.00 0.00 0.00 77 1016.2
20260507031519 6 287 0.0 1.6 0.00 0.00 0.00 74 1016.4
20260507030511 6 287 0.0 3.2 0.00 0.00 0.00 68 1016.4
20260507030024 6 276 1.6 1.6 0.00 0.00 0.00 68 1016.4
20260507025505 6 277 0.0 1.6 0.00 0.00 0.00 69 1016.3
20260507025003 6 277 0.0 3.2 0.00 0.00 0.00 69 1016.2
20260507024508 6 277 0.0 3.2 0.00 0.00 0.00 69 1016.3
20260507024004 6 273 0.0 1.6 0.00 0.00 0.00 68 1016.2
20260507023010 6 290 0.0 1.6 0.00 0.00 0.00 67 1016.2
20260507022006 7 288 0.0 1.6 0.00 0.00 0.00 66 1016.1
20260507021007 7 315 0.0 3.2 0.00 0.00 0.00 65 1016.0
20260507015511 8 311 1.6 4.8 0.00 0.00 0.00 62 1015.7
20260507014004 8 321 1.6 8.0 0.00 0.00 0.00 59 1015.6
20260507013503 8 305 1.6 8.0 0.00 0.00 0.00 58 1015.6
20260507013007 8 331 1.6 6.4 0.00 0.00 0.00 58 1015.5
20260507012503 9 307 1.6 6.4 0.00 0.00 0.00 57 1015.4
20260507011526 9 243 3.2 8.0 0.00 0.00 0.00 58 1015.3
20260507010506 10 353 1.6 4.8 0.00 0.00 0.00 56 1015.2
20260507010019 10 323 1.6 4.8 0.00 0.00 0.00 54 1015.2
20260507005507 10 276 0.0 4.8 0.00 0.00 0.00 53 1015.2
20260507005008 11 321 1.6 6.4 0.00 0.00 0.00 52 1015.1
20260507004522 11 310 1.6 6.4 0.00 0.00 0.00 53 1015.0
20260507003022 11 321 3.2 6.4 0.00 0.00 0.00 48 1014.9
20260507002504 12 348 1.6 8.0 0.00 0.00 0.00 48 1014.9
20260507002003 12 282 1.6 9.7 0.00 0.00 0.00 47 1014.8
20260507001508 12 280 1.6 9.7 0.00 0.00 0.00 46 1014.8
20260507001004 12 335 1.6 16.1 0.00 0.00 0.00 45 1014.8
20260507000503 12 330 3.2 16.1 0.00 0.00 0.00 45 1014.7
20260507000015 12 249 3.2 11.3 0.00 0.00 0.00 45 1014.8
20260506235504 12 326 1.6 11.3 0.00 0.00 0.00 44 1014.9
20260506235007 12 285 3.2 12.9 0.00 0.00 0.00 44 1014.9
20260506234008 12 316 3.2 14.5 0.00 0.00 0.00 44 1014.9
20260506233506 12 300 6.4 20.9 0.00 0.00 0.00 46 1014.9
20260506232011 13 288 16.1 20.9 0.00 0.00 0.00 40 1014.8
20260506231005 13 281 3.2 14.5 0.00 0.00 0.00 42 1014.9
20260506230503 13 320 1.6 17.7 0.00 0.00 0.00 41 1014.9
20260506230015 13 276 3.2 17.7 0.00 0.00 0.00 44 1014.8
20260506225503 13 321 3.2 24.1 0.00 0.00 0.00 44 1014.9
20260506225004 14 288 3.2 27.4 0.00 0.00 0.00 42 1014.8
20260506224007 14 319 6.4 19.3 0.00 0.00 0.00 43 1014.5
20260506223504 13 319 4.8 24.1 0.00 0.00 0.00 43 1014.5
20260506223021 13 282 17.7 24.1 0.00 0.00 0.00 40 1014.4
20260506222509 13 305 14.5 22.5 0.00 0.00 0.00 40 1014.4
20260506222009 14 292 9.7 22.5 0.00 0.00 0.00 44 1014.4
20260506221522 14 275 16.1 20.9 0.00 0.00 0.00 41 1014.3
20260506221010 14 351 4.8 12.9 0.00 0.00 0.00 44 1014.3
20260506220510 13 304 1.6 12.9 0.00 0.00 0.00 49 1014.4
20260506220026 13 265 6.4 11.3 0.00 0.00 0.00 45 1014.4
20260506215506 13 319 3.2 11.3 0.00 0.00 0.00 45 1014.4
20260506215002 13 323 3.2 20.9 0.00 0.00 0.00 44 1014.6
20260506214518 13 328 8.0 20.9 0.00 0.00 0.00 48 1014.5
20260506214007 13 331 6.4 17.7 0.00 0.00 0.00 48 1014.5
20260506213506 13 333 3.2 17.7 0.00 0.00 0.00 44 1014.6
20260506212507 13 305 16.1 24.1 0.00 0.00 0.00 43 1014.6
20260506212007 13 335 1.6 24.1 0.00 0.00 0.00 47 1014.6
20260506211521 13 318 12.9 24.1 0.00 0.00 0.00 42 1014.6
20260506211007 13 269 6.4 20.9 0.00 0.00 0.00 47 1014.6
20260506210510 13 291 9.7 16.1 0.00 0.00 0.00 40 1014.5
20260506210025 13 298 3.2 19.3 0.00 0.00 0.00 44 1014.6
20260506205511 13 334 3.2 19.3 0.00 0.00 0.00 46 1014.4
20260506205011 13 271 3.2 17.7 0.00 0.00 0.00 50 1014.5
20260506204526 13 350 1.6 27.4 0.00 0.00 0.00 46 1014.5
20260506204003 13 267 14.5 27.4 0.00 0.00 0.00 44 1014.6
20260506203502 13 271 12.9 29.0 0.00 0.00 0.00 43 1014.7
20260506203015 13 287 14.5 29.0 0.00 0.00 0.00 47 1014.8
20260506202506 13 317 11.3 29.0 0.00 0.00 0.00 47 1014.7
20260506202007 13 328 4.8 11.3 0.00 0.00 0.00 49 1014.8
20260506201525 13 320 3.2 32.2 0.00 0.03 0.00 46 1014.8
20260506201006 13 319 4.8 32.2 0.00 0.03 0.00 50 1014.9
20260506200509 13 263 17.7 29.0 0.00 0.03 0.00 46 1014.8
20260506200023 14 321 4.8 12.9 0.00 0.03 0.00 48 1014.9
20260506195509 13 319 1.6 17.7 0.00 0.03 0.00 50 1014.7
20260506195010 13 286 3.2 17.7 0.00 0.03 0.00 49 1014.7
20260506194524 13 330 3.2 22.5 0.00 0.05 0.00 53 1014.8
20260506194008 13 279 4.8 22.5 0.00 0.05 0.00 52 1014.8
20260506193510 13 274 4.8 12.9 0.00 0.08 0.00 53 1015.0
20260506193028 13 323 4.8 17.7 0.00 0.08 0.00 51 1014.9
20260506192506 13 323 4.8 22.5 0.00 0.10 0.00 49 1014.9
20260506192002 13 268 11.3 22.5 0.00 0.10 0.00 54 1014.9
20260506191510 13 302 8.0 22.5 0.00 0.10 0.00 52 1015.0
20260506191004 13 316 3.2 16.1 0.00 0.10 0.00 52 1015.0
20260506190505 13 343 6.4 20.9 0.00 0.10 0.00 54 1015.0
20260506190008 13 304 11.3 20.9 0.00 0.10 0.00 49 1015.0
20260506184002 13 293 8.0 16.1 0.00 0.10 0.00 51 1015.1
20260506183506 13 311 3.2 8.0 0.00 0.10 0.00 56 1014.9
20260506183011 13 295 4.8 9.7 0.00 0.10 0.00 52 1014.9